Location: Bazugues
(43.4465°N, 0.3432°E)
Time: 15:12:21
(UTC+00:00)

COSMO-SKYMED 1 - Pass Details

Date: 12 January 2026
Orbit: 577 x 579 km, 97.9° (Epoch: 18 February)

Event Time Altitude Azimuth Distance (km) Brightness Sun altitude
Exits shadow 18:46:14 17° 2° (N) 1,490 4.4 -21.6°
Maximum altitude 18:49:15 59° 287° (WNW) 674 2.9 -22.1°
Drops below altitude 10° 18:53:16 10° 207° (SSW) 1,886 5.5 -22.8°
Sets 18:55:26 0° 204° (SSW) 2,779 6.3 -23.2°
